Regional Weather Roundup
Issued by NWS Sioux Falls, SD

Home | Current Version | Previous Version | Text Only | Print | Product List | Glossary Off
Versions: 1 2 3 4 5 6 7 8 9 10 11 12 13 14 15 16 17 18 19 20 21 22 23 24 25 26 27 28 29 30 31 32 33 34 35 36 37 38 39 40 41 42 43 44 45 46 47 48 49 50

746
ASUS43 KFSD 291502
RWRFSD

WEATHER ROUNDUP FOR SE SOUTH DAKOTA/SW MINNESOTA/NW IOWA
NATIONAL WEATHER SERVICE SIOUX FALLS SD
1000 AM CDT FRI APR 29 2016

NOTE: "FAIR" INDICATES FEW OR NO CLOUDS BELOW 12,000 FEET WITH NO
SIGNIFICANT WEATHER AND OR OBSTRUCTIONS TO VISIBILITY.


SDZ038>040-050-052>070-291600-
SOUTHEAST SOUTH DAKOTA

CITY           SKY/WX    TMP DP  RH WIND       PRES   REMARKS
BROOKINGS        N/A     41  37  86 MISG      30.13F
CHAMBERLAIN    NOT AVBL
HURON          PTSUNNY   45  38  76 NE10      30.15S
MADISON        CLOUDY    39  39 100 NE15      30.12F
MITCHELL       CLOUDY    42  38  85 NE13      30.14F
SIOUX FALLS    CLOUDY    42  36  79 NE17      30.11F
WINNER         CLOUDY    41  36  82 E10       30.11S
YANKTON        CLOUDY    43  37  81 NE12      30.09F
$$

MNZ071-072-080-081-089-090-097-098-291600-
SOUTHWEST MINNESOTA

CITY           SKY/WX    TMP DP  RH WIND       PRES   REMARKS
FAIRMONT       CLOUDY    39  30  70 N14       30.13F
JACKSON        CLOUDY    39  36  87 NE14      30.14S
LUVERNE        CLOUDY    39  34  81 NE14      30.12F
MARSHALL       CLOUDY    44  39  82 NE9       30.17F
MONTEVIDEO     PTSUNNY   48  43  81 E8        30.19F
PIPESTONE      CLOUDY    39  36  87 E9        30.12F
REDWOOD FALLS  CLOUDY    44  37  76 NE7       30.17F
TRACY          CLOUDY    41  38  89 NE8       30.16F
WINDOM         CLOUDY    39  37  93 N9        30.15F
WORTHINGTON    CLOUDY    37  35  92 N16       30.13F
$$

IAZ001>003-012>014-020>022-031-032-NEZ013-014-SDZ071-291600-
NORTHWEST IOWA

CITY           SKY/WX    TMP DP  RH WIND       PRES   REMARKS
DENISON        CLOUDY    43  39  87 NE10G18   30.06R
ESTHERVILLE    CLOUDY    40  37  89 N16       30.11F
SIOUX CITY     CLOUDY    45  39  79 NE13      30.09S
SPENCER        CLOUDY    41  36  82 NE16      30.10F
STORM LAKE     CLOUDY    41  39  93 NE20      30.08S
$$

ABBREVIATIONS USED IN REMARKS
   TC - TEMPERATURE IN CELSIUS
  WCI - WIND CHILL INDEX
   HX - HEAT INDEX
  VSB - VISIBILITY





USA.gov is the U.S. government's official web portal to all federal, state and local government web resources and services.